Simultaneous Nadir Overpasses (SNOs) Predictions

Prediction of SNOs between METOP-B and TERRA Satellite Orbit:

Table of predicted SNOs for the next 14.0 days since TLE Epoch: 10/26/2013
Index Date (METOP-B) Time (METOP-B) Lat,Lon (METOP-B) SZA (METOP-B ) Date (TERRA) Time (TERRA) Lat,Lon (TERRA) SZA (TERRA ) Distance(km) Time Diff (sec)
1 10/27/2013 02:57:52 81.32,-176.78 97.32 10/27/2013 02:57:58 81.32,-176.87 97.31 1.53 6
2 10/27/2013 03:48:32 -81.32, -9.46 82.68 10/27/2013 03:47:25 -81.32, -9.29 82.69 2.82 67
3 10/29/2013 22:32:13 81.32,-110.69 98.21 10/29/2013 22:32:20 81.31,-110.62 98.22 1.28 7
4 10/29/2013 23:22:51 -81.33, 57.46 81.68 10/29/2013 23:21:46 -81.33, 57.39 81.72 1.21 65
5 11/01/2013 18:06:33 81.32, -44.28 99.12 11/01/2013 18:06:45 81.32, -44.11 99.14 2.81 12
6 11
